SL-16 DEB, 24301

Orbit data source: Space-Track

SL-16 DEB, 24301 is space debris in LEO originally from a launch on Wed, 04 Sep 1996 UTC launched from the Tyuratam Missile And Space Complex (TTMTR). Debris objects in space refer to the collection of defunct objects orbiting the Earth. Examples of debris include non-operational satellites, rocket bodies, and fragments generated from explosions, collisions, or faulty payload assembly.

Loading next visibility...
Identifier
24301, 1996-051E
Orbit
LEO
Last TLE update
15 hours ago
Origin
Manufacturer
Yuzhnoe
Mission
Spacecraft
Bus & Motor
SEP MOTOR COVER, Unknown motor
Mass
~0 kg wet, ~1 kg dry
Launch date (UTC)
1996-09-04 (29 years ago)
Launch vehicle
Unknown
Launch site
Tyuratam Missile And Space Complex (TTMTR)
Object type
Payload
Rocket body
Debris
Shape & HBR
Unknown
Radar Cross Section
Small (<0.1 m²)

Expand to show TLE details & history

TLE from 15 hours ago
0 SL-16 DEB
1 24301U 96051E   25129.25753807  .00000084  00000-0  11809-3 0  9991
2 24301  70.9930 221.6570 0206254  28.4131   2.8492 13.72504166435542
Epoch: 2025-05-09T06:10Z
Definitive object data (Epoch: 2025-05-09T06:10:51.289Z)
Latitude
29.55594°
Longitude
-87.16939°
Altitude
841.918 km
Speed
7.511 km/s
True Right ascension
15h 31m 26s
True Declination
29° 24' 37"
Sunlit
Object was in full shadow at TLE epoch
Visualization TLE readout
Latitude
23.6299°
Longitude
71.81429°
Altitude
1,083.213 km
Speed
7.268 km/s
Apparent Right ascension
23h 04m 29s
Apparent Declination
-13° 21' 07"
Sunlit
Object is in daylight
Visualization observer readout
Local Sidereal Time
04:57:07
Azimuth
258.537° W
Elevation
-7.134°
Doppler factor
1
Orbital elements
Apogee altitude
1,140.502 km
Perigee altitude
836.62 km
Semi-major axis
7,366.698 km
Eccentricity
0.0206254
Inclination
70.993°
RAAN
221.657°
Arg. of periapsis
28.4131°
True anomaly
2.96978°
Mean anomaly
2.8492°
Eccentric anomaly
2.90918°
Mean motion
3.43268 °/min
BSTAR
0.00011809
Orbital period
104.87 mins
Loading maneuver chart data...
Loading SW <> Apogee altitude chart data...
Loading historical data...
Loading historical data...
Loading historical data...
Loading historical data...
Loading historical data...
Loading historical data...
Loading historical data...

SL-16 DEB Visibility forecast

Observer location: undefined°, undefined°

Span
Click to sort rows by Start time (UTC) header in descending order
Start Az.
Max El. time (UTC)
Max El. Az.
Max El.
End time (UTC)
End Az.
9 mins2025-05-10 06:37:56.495Z164.817° S2025-05-10 06:42:56.495Z93.139° ESE28.697°2025-05-10 06:46:56.495Z43.88° NE
8 mins2025-05-10 08:25:56.495Z247.749° W2025-05-10 08:29:56.495Z308.068° NW27.652°2025-05-10 08:33:56.495Z0.649° NNE
9 mins2025-05-10 15:48:56.495Z7.857° NNE2025-05-10 15:52:56.495Z54.946° ENE23.627°2025-05-10 15:57:56.495Z106.872° ESE
11 mins2025-05-10 17:35:56.495Z324.735° NNW2025-05-10 17:40:56.495Z238.534° WSW40.33°2025-05-10 17:46:56.495Z175.435° S
|